San Carlos, CA

3:17 PM PDT on May 24, 2017 (GMT -0700)
San Carlos

Weather History for KSQL - November, 2011

Change the Weather History Date:

Thursday, November 10, 2011

  Actual Average Record
Temperature  
Mean Temperature 54 °F -  
Max Temperature 66 °F 65 °F 85 °F (1955)
Min Temperature 41 °F 45 °F 34 °F (1978)
Degree Days  
Heating Degree Days 12    
Growing Degree Days 4 (Base 50)    
Moisture  
Dew Point 41 °F    
Average Humidity 73    
Maximum Humidity 93    
Minimum Humidity 37    
Precipitation  
Precipitation 0.00 in - - ()
Sea Level Pressure  
Sea Level Pressure 30.06 in    
Wind  
Wind Speed 2 mph (SW)    
Max Wind Speed 9 mph    
Max Gust Speed -    
Visibility 9 miles    
Events      
Averages and records for this station are not official NWS values.
T = Trace of Precipitation, MM = Missing Value Source: NWS Daily Summary

Daily Weather History Graph

Daily Weather History Graph

Search for Another Location

Airport or City:

Trip Planner

Search our weather history database for the weather conditions in past years. The results will help you decide how hot, cold, wet, or windy it might be!

Date:

Astronomy

Nov. 10, 2011 Rise Set
Actual Time 6:43 AM PST 5:02 PM PST
Civil Twilight 6:15 AM PST 5:29 PM PST
Nautical Twilight 5:44 AM PST 6:01 PM PST
Astronomical Twilight 5:13 AM PST 6:31 PM PST
Moon 4:54 PM PST (11/10) 6:39 AM PST (11/10)
Length of Visible Light 11h 14m
Length of Day
10h 19m
Full, 100% of the Moon is Illuminated
Nov 10
Full
Nov 10
Full
Nov 18
Last Quarter
Nov 24
New
Dec 2
First Quarter

Hourly Weather History & Observations

Time (PST) Temp. Windchill Dew Point Humidity Pressure Visibility Wind Dir Wind Speed Gust Speed Precip Events Conditions
12:10 AM 50.0 °F - 41.0 °F 71% 30.16 in 9.0 mi WSW 3.5 mph - N/A   Clear
12:30 AM 48.2 °F - 41.0 °F 76% 30.15 in 8.0 mi Calm Calm - N/A   Clear
1:10 AM 46.4 °F 45.2 °F 41.0 °F 81% 30.15 in 7.0 mi WSW 3.5 mph - N/A   Clear
1:30 AM 46.4 °F 45.2 °F 41.0 °F 81% 30.15 in 8.0 mi WSW 3.5 mph - N/A   Clear
1:50 AM 48.2 °F - 42.8 °F 82% 30.14 in 8.0 mi SSE 3.5 mph - N/A   Clear
2:10 AM 46.4 °F - 41.0 °F 81% 30.15 in 9.0 mi Calm Calm - N/A   Clear
2:30 AM 46.4 °F - 41.0 °F 81% 30.15 in 9.0 mi Calm Calm - N/A   Clear
2:50 AM 46.4 °F - 41.0 °F 81% 30.15 in 9.0 mi Calm Calm - N/A   Clear
3:10 AM 46.4 °F - 41.0 °F 81% 30.15 in 9.0 mi Calm Calm - N/A   Clear
3:30 AM 46.4 °F - 41.0 °F 81% 30.15 in 8.0 mi Calm Calm - N/A   Clear
4:10 AM 44.6 °F - 41.0 °F 87% 30.15 in 8.0 mi Calm Calm - N/A   Clear
4:30 AM 44.6 °F 43.1 °F 39.2 °F 81% 30.16 in 7.0 mi SSW 3.5 mph - N/A   Clear
4:50 AM 44.6 °F - 39.2 °F 81% 30.16 in 7.0 mi Calm Calm - N/A   Clear
5:10 AM 44.6 °F - 39.2 °F 81% 30.15 in 7.0 mi Calm Calm - N/A   Clear
5:30 AM 42.8 °F - 39.2 °F 87% 30.15 in 7.0 mi Calm Calm - N/A   Clear
5:50 AM 44.6 °F - 39.2 °F 81% 30.14 in 5.0 mi Calm Calm - N/A   Clear
6:30 AM 41.0 °F 39.0 °F 39.2 °F 93% 30.14 in 7.0 mi SSE 3.5 mph - N/A   Clear
6:52 AM 41.0 °F 39.0 °F 39.2 °F 93% 30.14 in 8.0 mi SE 3.5 mph - N/A   Scattered Clouds
7:47 AM 41.0 °F 39.0 °F 39.2 °F 93% 30.13 in 8.0 mi SE 3.5 mph - N/A   Mostly Cloudy
8:55 AM 48.2 °F - 41.0 °F 76% 30.12 in 10.0 mi Calm Calm - N/A   Mostly Cloudy
9:47 AM 53.6 °F - 41.0 °F 62% 30.12 in 10.0 mi Calm Calm - N/A   Mostly Cloudy
10:47 AM 57.2 °F - 41.0 °F 55% 30.09 in 10.0 mi Calm Calm - N/A   Mostly Cloudy
11:47 AM 59.0 °F - 41.0 °F 51% 30.06 in 10.0 mi NNE 3.5 mph - N/A   Scattered Clouds
2:47 PM 66.2 °F - 39.2 °F 37% 29.99 in 10.0 mi NNW 4.6 mph - N/A   Clear
3:47 PM 64.4 °F - 44.6 °F 49% 29.98 in 10.0 mi North 9.2 mph - N/A   Clear
4:47 PM 60.8 °F - 44.6 °F 55% 29.97 in 10.0 mi North 3.5 mph - N/A   Clear
5:50 PM 59.0 °F - 44.6 °F 59% 29.98 in 10.0 mi NNW 5.8 mph - N/A   Clear
6:47 PM 57.2 °F - 44.6 °F 63% 29.98 in 10.0 mi NW 4.6 mph - N/A   Clear
7:47 PM 55.4 °F - 46.4 °F 72% 29.97 in 10.0 mi Calm Calm - N/A   Clear
8:47 PM 53.6 °F - 42.8 °F 67% 29.97 in 10.0 mi Calm Calm - N/A   Mostly Cloudy
9:10 PM 53.6 °F - 39.2 °F 58% 29.96 in 10.0 mi South 3.5 mph - N/A   Clear
9:30 PM 51.8 °F - 39.2 °F 62% 29.96 in 10.0 mi SSW 3.5 mph - N/A   Clear
9:50 PM 51.8 °F - 41.0 °F 67% 29.95 in 10.0 mi SW 4.6 mph - N/A   Clear
10:10 PM 51.8 °F - 41.0 °F 67% 29.94 in 10.0 mi Calm Calm - N/A   Clear
10:30 PM 51.8 °F - 42.8 °F 71% 29.94 in 10.0 mi Calm Calm - N/A   Clear
10:50 PM 48.2 °F - 41.0 °F 76% 29.93 in 10.0 mi Calm Calm - N/A   Clear
11:10 PM 50.0 °F - 41.0 °F 71% 29.92 in 10.0 mi Calm Calm - N/A   Clear
11:30 PM 48.2 °F - 41.0 °F 76% 29.91 in 10.0 mi Calm Calm - N/A   Clear
11:50 PM 48.2 °F - 41.0 °F 76% 29.91 in 10.0 mi Calm Calm - N/A   Clear